Regional Weather Roundup
Issued by NWS Sioux Falls, SD

Home | Current Version | Previous Version | Graphics & Text | Print | Product List | Glossary Off
Versions: 1 2 3 4 5 6 7 8 9 10 11 12 13 14 15 16 17 18 19 20 21 22 23 24 25 26 27 28 29 30 31 32 33 34 35 36 37 38 39 40 41 42 43 44 45 46 47 48 49 50

000
ASUS43 KFSD 222302
RWRFSD

WEATHER ROUNDUP FOR SE SOUTH DAKOTA/SW MINNESOTA/NW IOWA
NATIONAL WEATHER SERVICE SIOUX FALLS SD
600 PM CDT WED MAR 22 2017

NOTE: "FAIR" INDICATES FEW OR NO CLOUDS BELOW 12,000 FEET WITH NO
SIGNIFICANT WEATHER AND OR OBSTRUCTIONS TO VISIBILITY.


SDZ038>040-050-052>070-230000-
SOUTHEAST SOUTH DAKOTA

CITY           SKY/WX    TMP DP  RH WIND       PRES   REMARKS
BROOKINGS      CLOUDY    34  24  67 SE26      30.13F WCI  21
CHAMBERLAIN    NOT AVBL
HURON          CLOUDY    38  24  57 SE20G36   30.04F
MADISON        CLOUDY    34  27  75 SE25G31   30.13F WCI  21
MITCHELL       CLOUDY    40  25  55 SE23G32   30.08F
SIOUX FALLS    CLOUDY    39  25  57 SE18G26   30.18F
WINNER         FAIR      55  29  36 S24G36    29.93F
YANKTON        CLOUDY    43  25  49 E20       30.13F
$$

MNZ071-072-080-081-089-090-097-098-230000-
SOUTHWEST MINNESOTA

CITY           SKY/WX    TMP DP  RH WIND       PRES   REMARKS
FAIRMONT       CLOUDY    36  24  62 SE16      30.32F
JACKSON        CLOUDY    34  27  75 SE15      30.28F WCI  24
MARSHALL       CLOUDY    34  26  72 SE24      30.23F WCI  21
MONTEVIDEO     CLOUDY    34  25  69 S18G24    30.27F WCI  23
PIPESTONE      CLOUDY    34  25  69 SE16G24   30.18F WCI  23
REDWOOD FALLS  CLOUDY    35  23  61 SE17      30.29F WCI  25
TRACY          CLOUDY    34  28  77 SE15      30.25F WCI  24
WINDOM         CLOUDY    34  25  69 SE12G18   30.28F WCI  25
WORTHINGTON    CLOUDY    33  25  72 SE18G25   30.24F WCI  22
$$

IAZ001>003-012>014-020>022-031-032-NEZ013-014-SDZ071-230000-
NORTHWEST IOWA

CITY           SKY/WX    TMP DP  RH WIND       PRES   REMARKS
CHEROKEE       CLOUDY    41  24  49 SE20      30.26F
DENISON        CLOUDY    43  28  56 SE13G20   30.23F
ESTHERVILLE    CLOUDY    35  27  72 SE14      30.29F WCI  26
LE MARS        CLOUDY    41  25  52 SE22G29   30.22F
ORANGE CITY    CLOUDY    39  25  56 SE13G21   30.22F
SHELDON        CLOUDY    37  28  70 SE16G22   30.22F
SIOUX CITY     CLOUDY    45  29  53 SE20G31   30.19F
SPENCER        CLOUDY    38  23  55 SE16      30.27F
STORM LAKE     CLOUDY    41  23  48 SE23G29   30.25F
$$

ABBREVIATIONS USED IN REMARKS
   TC - TEMPERATURE IN CELSIUS
  WCI - WIND CHILL INDEX
   HX - HEAT INDEX
  VSB - VISIBILITY




USA.gov is the U.S. government's official web portal to all federal, state and local government web resources and services.